Weather History for Culpeper, VA

Change the Weather History Date:

Tuesday, January 29, 2013

  Actual Average (KOMH) Record (KOMH)
Temperature  
Mean Temperature 55 °F -  
Max Temperature 73 °F 43 °F 77 °F (2002)
Min Temperature 37 °F 23 °F 1 °F (1966)
Degree Days  
Heating Degree Days 10    
Growing Degree Days 5 (Base 50)    
Moisture  
Dew Point 48 °F    
Average Humidity 79    
Maximum Humidity 100    
Minimum Humidity 50    
Precipitation  
Precipitation 0.00 in - - ()
Sea Level Pressure  
Sea Level Pressure 30.06 in    
Wind  
Wind Speed 2 mph (South)    
Max Wind Speed 7 mph    
Max Gust Speed -    
Visibility 8 miles    
Events      
Averages and records for this station are not official NWS values.
T = Trace of Precipitation, MM = Missing Value Source: NWS Daily Summary

Daily Weather History Graph

Daily Weather History Graph

Search for Another Location

Airport:

Trip Planner

Search our weather history database for the weather conditions in past years. The results will help you decide how hot, cold, wet, or windy it might be!

Date:

Astronomy

Jan. 29, 2013 Rise Set
Actual Time 7:19 AM EST 5:30 PM EST
Civil Twilight 6:51 AM EST 5:58 PM EST
Nautical Twilight 6:19 AM EST 6:30 PM EST
Astronomical Twilight 5:48 AM EST 7:01 PM EST
Moon 8:21 PM EST (1/29) 8:17 AM EST (1/29)
Length of Visible Light 11h 07m
Length of Day
10h 11m
Waning Gibbous, 94% of the Moon is Illuminated
Jan 29
Waning Gibbous
Feb 3
Last Quarter
Feb 10
New
Feb 17
First Quarter
Feb 25
Full

Hourly Weather History & Observations

Time (EST) Temp. Windchill Dew Point Humidity Pressure Visibility Wind Dir Wind Speed Gust Speed Precip Events Conditions
12:15 AM 46.4 °F - 42.8 °F 87% 30.08 in 10.0 mi Calm Calm - N/A   Clear
12:35 AM 46.4 °F 42.9 °F 42.8 °F 87% 30.07 in 10.0 mi SSW 6.9 mph - N/A   Clear
12:55 AM 46.4 °F 44.3 °F 44.6 °F 93% 30.07 in 10.0 mi SW 4.6 mph - N/A   Clear
1:15 AM 46.4 °F - 44.6 °F 93% 30.07 in 10.0 mi Calm Calm - N/A   Clear
1:35 AM 44.6 °F 43.1 °F 44.6 °F 100% 30.07 in 10.0 mi SW 3.5 mph - N/A   Clear
1:55 AM 44.6 °F 41.4 °F 44.6 °F 100% 30.07 in 10.0 mi SSW 5.8 mph - N/A   Clear
2:15 AM 46.4 °F 43.5 °F 44.6 °F 93% 30.07 in 10.0 mi SSW 5.8 mph - N/A   Clear
2:35 AM 46.4 °F 44.3 °F 44.6 °F 93% 30.07 in 10.0 mi SSW 4.6 mph - N/A   Clear
2:55 AM 46.4 °F 44.3 °F 44.6 °F 93% 30.08 in 10.0 mi SW 4.6 mph - N/A   Clear
3:15 AM 44.6 °F - 44.6 °F 100% 30.08 in 7.0 mi Calm Calm - N/A   Clear
3:35 AM 44.6 °F - 44.6 °F 100% 30.08 in 7.0 mi Calm Calm - N/A   Clear
3:55 AM 41.0 °F - 41.0 °F 100% 30.07 in 5.0 mi Calm Calm - N/A   Clear
4:15 AM 39.2 °F 37.0 °F 39.2 °F 100% 30.07 in 5.0 mi West 3.5 mph - N/A   Clear
4:35 AM 41.0 °F - 41.0 °F 100% 30.07 in 5.0 mi Calm Calm - N/A   Clear
4:55 AM 39.2 °F - 39.2 °F 100% 30.08 in 3.0 mi Calm Calm - N/A   Clear
5:15 AM 37.4 °F - 37.4 °F 100% 30.08 in 3.0 mi Calm Calm - N/A   Clear
5:35 AM 37.4 °F - 37.4 °F 100% 30.08 in 2.5 mi Calm Calm - N/A   Clear
5:55 AM 39.2 °F - 39.2 °F 100% 30.09 in 3.0 mi Calm Calm - N/A   Scattered Clouds
6:15 AM 39.2 °F - 39.2 °F 100% 30.10 in 4.0 mi Calm Calm - N/A   Light Drizzle
6:35 AM 39.2 °F - 39.2 °F 100% 30.10 in 4.0 mi Calm Calm - N/A   Scattered Clouds
6:55 AM 39.2 °F - 39.2 °F 100% 30.10 in 2.5 mi Calm Calm - N/A   Scattered Clouds
7:15 AM 37.4 °F - 37.4 °F 100% 30.10 in 2.5 mi Calm Calm - N/A   Drizzle
7:35 AM 37.4 °F - 37.4 °F 100% 30.11 in 1.8 mi Calm Calm - N/A   Mostly Cloudy
7:55 AM 37.4 °F - 37.4 °F 100% 30.12 in 1.5 mi Calm Calm - N/A   Mist
8:15 AM 39.2 °F - 39.2 °F 100% 30.12 in 2.5 mi Calm Calm - N/A   Clear
8:35 AM 42.8 °F - 42.8 °F 100% 30.12 in 5.0 mi Calm Calm - N/A   Clear
8:55 AM 46.4 °F - 46.4 °F 100% 30.12 in 7.0 mi Calm Calm - N/A   Clear
9:15 AM 48.2 °F - 46.4 °F 93% 30.13 in 10.0 mi Calm Calm - N/A   Clear
9:35 AM 51.8 °F - 46.4 °F 82% 30.13 in 10.0 mi Calm Calm - N/A   Clear
9:55 AM 51.8 °F - 46.4 °F 82% 30.13 in 10.0 mi Calm Calm - N/A   Clear
10:15 AM 55.4 °F - 46.4 °F 72% 30.13 in 10.0 mi Calm Calm - N/A   Clear
10:35 AM 59.0 °F - 48.2 °F 67% 30.12 in 10.0 mi Calm Calm - N/A   Clear
10:55 AM 62.6 °F - 51.8 °F 68% 30.12 in 10.0 mi SW 4.6 mph - N/A   Clear
11:15 AM 62.6 °F - 51.8 °F 68% 30.11 in 10.0 mi Calm Calm - N/A   Clear
11:35 AM 64.4 °F - 51.8 °F 64% 30.10 in 10.0 mi South 3.5 mph - N/A   Clear
11:55 AM 66.2 °F - 51.8 °F 60% 30.08 in 10.0 mi South 3.5 mph - N/A   Unknown
12:15 PM 68.0 °F - 51.8 °F 56% 30.08 in 10.0 mi Calm Calm - N/A   Unknown
12:35 PM 69.8 °F - 53.6 °F 56% 30.07 in 10.0 mi WSW 3.5 mph - N/A   Unknown
12:55 PM 69.8 °F - 53.6 °F 56% 30.06 in 10.0 mi South 4.6 mph - N/A   Unknown
1:15 PM 71.6 °F - 53.6 °F 53% 30.05 in 10.0 mi South 6.9 mph - N/A   Unknown
1:35 PM 71.6 °F - 53.6 °F 53% 30.04 in 10.0 mi South 5.8 mph - N/A   Unknown
1:55 PM 71.6 °F - 53.6 °F 53% 30.03 in 10.0 mi South 5.8 mph - N/A   Unknown
2:15 PM 73.4 °F - 53.6 °F 50% 30.03 in 10.0 mi South 6.9 mph - N/A   Unknown
2:35 PM 73.4 °F - 53.6 °F 50% 30.03 in 10.0 mi SSE 5.8 mph - N/A   Unknown
2:55 PM 73.4 °F - 53.6 °F 50% 30.02 in 10.0 mi SSW 6.9 mph - N/A   Unknown
3:15 PM 73.4 °F - 53.6 °F 50% 30.02 in 10.0 mi SSE 4.6 mph - N/A   Unknown
3:35 PM 73.4 °F - 53.6 °F 50% 30.02 in 10.0 mi South 5.8 mph - N/A   Unknown
3:55 PM 73.4 °F - 53.6 °F 50% 30.02 in 10.0 mi South 4.6 mph - N/A   Unknown
4:15 PM 73.4 °F - 53.6 °F 50% 30.02 in 10.0 mi South 4.6 mph - N/A   Unknown
4:35 PM 73.4 °F - 53.6 °F 50% 30.01 in 10.0 mi South 4.6 mph - N/A   Unknown
4:55 PM 71.6 °F - 53.6 °F 53% 30.02 in 10.0 mi South 5.8 mph - N/A   Unknown
5:15 PM 69.8 °F - 53.6 °F 56% 30.02 in 10.0 mi South 4.6 mph - N/A   Unknown
5:35 PM 68.0 °F - 53.6 °F 60% 30.02 in 10.0 mi Calm Calm - N/A   Unknown
5:55 PM 66.2 °F - 53.6 °F 64% 30.02 in 10.0 mi South 3.5 mph - N/A   Unknown
6:15 PM 62.6 °F - 53.6 °F 72% 30.01 in 10.0 mi Calm Calm - N/A   Unknown
6:35 PM 60.8 °F - 51.8 °F 72% 30.01 in 10.0 mi Calm Calm - N/A   Unknown
6:55 PM 57.2 °F - 51.8 °F 82% 30.01 in 10.0 mi Calm Calm - N/A   Unknown
7:15 PM 55.4 °F - 50.0 °F 82% 30.01 in 10.0 mi Calm Calm - N/A   Unknown
7:35 PM 53.6 °F - 48.2 °F 82% 30.01 in 10.0 mi Calm Calm - N/A   Unknown
7:55 PM 53.6 °F - 50.0 °F 88% 30.01 in 10.0 mi Calm Calm - N/A   Unknown
8:15 PM 55.4 °F - 51.8 °F 88% 30.01 in 10.0 mi Calm Calm - N/A   Unknown
8:35 PM 53.6 °F - 50.0 °F 88% 30.02 in 10.0 mi Calm Calm - N/A   Unknown
8:55 PM 53.6 °F - 50.0 °F 88% 30.02 in 10.0 mi Calm Calm - N/A   Unknown
9:15 PM 51.8 °F - 50.0 °F 94% 30.01 in 10.0 mi SSE 3.5 mph - N/A   Unknown
9:35 PM 53.6 °F - 50.0 °F 88% 30.01 in 10.0 mi South 3.5 mph - N/A   Unknown
9:55 PM 60.8 °F - 51.8 °F 72% 30.01 in 10.0 mi SSW 3.5 mph - N/A   Unknown
10:15 PM 59.0 °F - 50.0 °F 72% 30.01 in 10.0 mi Calm Calm - N/A   Unknown
10:35 PM 59.0 °F - 50.0 °F 72% 30.02 in 10.0 mi South 3.5 mph - N/A   Unknown
10:55 PM 60.8 °F - 51.8 °F 72% 30.00 in 10.0 mi South 4.6 mph - N/A   Unknown
11:15 PM 59.0 °F - 50.0 °F 72% 29.99 in 10.0 mi South 3.5 mph - N/A   Unknown
11:35 PM 55.4 °F - 50.0 °F 82% 29.98 in 10.0 mi SSE 4.6 mph - N/A   Unknown
11:55 PM 55.4 °F - 50.0 °F 82% 29.98 in 10.0 mi Calm Calm - N/A   Unknown